Regional Weather Roundup
Issued by NWS

Home | Current Version | Previous Version | Text Only | Print | Product List | Glossary Off
Versions: 1 2 3 4 5 6 7 8 9 10 11 12 13 14 15 16 17 18 19 20 21 22 23 24 25 26 27 28 29 30 31 32 33 34 35 36 37 38 39 40 41 42 43 44 45 46 47 48 49 50

000
ASUS43 KLMK 230710
RWRKY
KENTUCKY REGIONAL WEATHER ROUNDUP
NATIONAL WEATHER SERVICE LOUISVILLE KY
300 AM EDT SAT MAY 23 2015

NOTE "FAIR" INDICATES FEW OR NO CLOUDS BELOW 12,000 FEET
WITH NO SIGNIFICANT WEATHER AND/OR OBSTRUCTIONS TO VISIBILITY.

KYZ001>023-026-027-061>063-070>075-230800-
WESTERN AND SOUTH CENTRAL KENTUCKY

CITY           SKY/WX    TMP DP  RH WIND       PRES   REMARKS
PADUCAH        PTCLDY    58  54  86 E3        30.25S
HENDERSON      PTCLDY    57  52  82 CALM      30.26S
OWENSBORO      PTCLDY    60  55  83 CALM      30.28S
HOPKINSVILLE   PTCLDY    58  51  78 SE3       30.26R
BOWLING GREEN  PTCLDY    54  49  83 CALM      30.29R
GLASGOW        PTCLDY    52  51  96 CALM      30.28F
$$

KYZ024-025-028>034-038-045-046-053-230800-
NORTH CENTRAL KENTUCKY

CITY           SKY/WX    TMP DP  RH WIND       PRES   REMARKS
LOUISVILLE/SDF MOCLDY    59  51  75 SE5       30.29R
LOUISVILLE/LOU PTCLDY    56  49  77 CALM      30.29S
FORT KNOX      PTCLDY    50  48  91 CALM      30.27F
$$

KYZ035>037-039>044-047>052-055>060-089>105-230800-
NORTHEAST KENTUCKY

CITY           SKY/WX    TMP DP  RH WIND       PRES   REMARKS
LEXINGTON      CLEAR     55  45  68 S3        30.30F
COVINGTON      PTCLDY    51  47  86 CALM      30.29S
FRANKFORT      CLEAR     51  46  83 CALM      30.29S
$$

KYZ054-064>069-076>088-106>120-230800-
SOUTHEAST KENTUCKY

CITY           SKY/WX    TMP DP  RH WIND       PRES   REMARKS
JACKSON        PTCLDY    54  46  74 CALM      30.32S
LONDON         PTCLDY    50  44  80 CALM      30.31F
SOMERSET       CLEAR     48  46  93 CALM      30.32S
MIDDLESBORO    PTCLDY    46  46  99 CALM      30.34S
MONTICELLO     MOSUNNY   49  49 100 CALM      30.33S
$$




USA.gov is the U.S. government's official web portal to all federal, state and local government web resources and services.